Location: Cahas Mountain Overlook
(37.0833°N, 80.1000°W)
Time: 19:05:22
(UTC-04:00)

SR - Pass Details

Date: 14 February 2026
Orbit: 572 x 849 km, 66.7° (Epoch: 12 March)

Event Time Altitude Azimuth Distance (km) Brightness Sun altitude
Rises 13:21:37 0° 348° (NNW) 3,069 ? 38.9°
Reaches altitude 10° 13:24:37 10° 7° (N) 2,205 ? 38.7°
Maximum altitude 13:28:03 18° 50° (NE) 1,774 ? 38.5°
Drops below altitude 10° 13:31:38 10° 93° (E) 2,321 ? 38.3°
Sets 13:34:53 0° 112° (ESE) 3,296 ? 38.1°
